Regional Weather Roundup
Issued by NWS

Home | Current Version | Previous Version | Graphics & Text | Print | Product List | Glossary On
Versions: 1 2 3 4 5 6 7 8 9 10 11 12 13 14 15 16 17 18 19 20 21 22 23 24 25 26 27
000
ASUS45 KSLC 161510
RWRUT

UTAH REGIONAL WEATHER ROUNDUP
NATIONAL WEATHER SERVICE SALT LAKE CITY UT
800 AM MST TUE JAN 16 2018

UTZ001>011-023>025-161600-

NORTHERN UTAH

CITY           SKY/WX    TMP DP  RH WIND       PRES   REMARKS
BRIGHAM CITY   CLEAR     29  22  75 CALM      30.34S
DUGWAY         PTCLDY    20  18  93 E6        30.31S WCI  12
HILL AFB       CLEAR     29  17  58 E23       30.31R WCI  16
LOGAN          PTCLDY    22  16  78 NE5       30.36R WCI  16
OGDEN          CLEAR     31  19  61 SW6       30.31S WCI  25
SALT LAKE CITY PTCLDY    32  22  66 NE3       30.32R
TOOELE VALLEY  CLEAR     34  27  75 S13       30.32R WCI  25
WENDOVER       MOCLDY    25  22  88 W5        30.32S WCI  19
HEBER CITY       N/A     19  14  79 E3        30.38R
WEST JORDAN    CLEAR     29  24  80 CALM      30.33S

$$

UTZ011>015-024>027-161600-

CENTRAL/NORTHEAST UTAH

CITY           SKY/WX    TMP DP  RH WIND       PRES   REMARKS
PROVO AIRPORT  PTCLDY    24  22  91 N5        30.35R WCI  18
MOAB/CANYONLAN PTCLDY    21  13  71 S5        30.39S WCI  15
DELTA          PTCLDY    25  23  93 CALM      30.31R
PRICE          CLEAR     20  15  81 NE3       30.37S
ROOSEVELT      PTCLDY    12   9  85 CALM      30.49S
VERNAL         PTCLDY    13   7  77 CALM      30.47R

$$

UTZ013>016-019>022-027-161600-

SOUTHERN UTAH

CITY           SKY/WX    TMP DP  RH WIND       PRES   REMARKS
BRYCE CANYON   PTCLDY    17  15  92 W6        30.34R WCI   9
CEDAR CITY     PTCLDY    25  24  96 E3        30.28R
MILFORD        MOCLDY    25  22  88 CALM      30.30R
ST GEORGE      MOSUNNY   37  33  85 CALM      30.28R
HANKSVILLE     PTCLDY    14  10  85 CALM      30.44S
KANAB          CLEAR     36  25  64 N12       30.36R WCI  27
BLANDING         N/A     26  15  61 NW5       30.42R WCI  20

$$

REGIONAL REPORTS     COLORADO/ARIZONA

CITY           SKY/WX    TMP DP  RH WIND       PRES   REMARKS
CRAIG, CO      CLEAR     -4  -9  79 CALM      30.45S
GRAND JUNCTION CLEAR     22  12  65 SW5       30.43R WCI  16
RIFLE, CO      CLEAR     14  10  84 CALM      30.47R
MONTROSE, CO   CLEAR     15  11  83 SE7       30.45R WCI   5
CORTEZ, CO     PTCLDY    14  11  87 CALM      30.37R
COLORADO CITY    N/A     43  28  56 NE15      30.30S
PAGE, AZ       MOCLDY    35  27  72 CALM      30.34R
GRAND CANYON   MOCLDY    36  21  54 E7        30.31R WCI  30
KINGMAN, AZ    CLEAR     38  32  79 E6        30.20R WCI  33
FLAGSTAFF, AZ  MOCLDY    24  19  81 CALM      30.30S

$$

REGIONAL REPORTS    NEVADA/IDAHO/WYOMING

CITY           SKY/WX    TMP DP  RH WIND       PRES   REMARKS
LAS VEGAS, NV  MOCLDY    50  39  66 SW3       30.20R
ELY, NY        PTCLDY    24  20  84 S9        30.26S WCI  14
ELKO, NV       CLOUDY    30  26  85 CALM      30.24R
POCATELLO, ID  CLEAR     21  18  88 S5        30.32S WCI  15
BURLEY, ID     CLEAR     30  23  75 NE15G22   30.25S WCI  19
EVANSTON, WY   CLEAR     11   8  88 E7        30.36S WCI   0
ROCK SPRINGS,  CLEAR      5  -2  72 SE5       30.38S WCI  -4

$$




USA.gov is the U.S. government's official web portal to all federal, state and local government web resources and services.